Terug naar catalogus

DELTA 1 DEB

ActiefLEO
NORAD 7202·DEBRIS·🇺🇸 United States

Gelanceerd Nov 6, 1973 vanaf Vandenberg Space Force Base

Loading…

Volgende Passages (komende 24 uur)

TLE

VersSource: Space-Track

Epoch: Sep 13, 2026, 22:24 UTC

1  7202U 73086FL  26256.93367359  .00000375  00000-0  80281-3 0  9998
2  7202 102.0441 248.7954 0288079 246.8502 139.5241 13.24852434533298

Volg DELTA 1 DEB in realtime met AllMySat

Download on the App Store